When you browse on this site, cookies collect data to enhance your experience and personalize the content and advertising you see.
Visit our Privacy Policy to learn more. By continuing to use the site, you agree to this use of cookies and data.
  • In Portugal
  • List of Countries
  • For 7 days
  • Water Temperature
  • Weather Map
  • Weather Widgets
  • user-avatar
    Login

    Hourly Weather Urickoe

    Today, 24 January, Friday

    Time Temperature Precipitation Wind Pressure Humidity
    00:00 -4°C° 0.2 mm 4 mps 742 mmHg 83%
    01:00 -4°C° 0.2 mm 4 mps 741 mmHg 87%
    02:00 -3°C° 0 mm 4 mps 740 mmHg 90%
    03:00 -3°C° 0.1 mm 4 mps 739 mmHg 91%
    04:00 -3°C° 0.1 mm 4 mps 738 mmHg 93%
    05:00 -4°C° 0.1 mm 5 mps 738 mmHg 94%
    06:00 -2°C° 0.6 mm 4 mps 737 mmHg 95%
    07:00 -2°C° 0.6 mm 4 mps 736 mmHg 96%
    08:00 -1°C° 0.6 mm 4 mps 736 mmHg 97%
    09:00 -1°C° 0.1 mm 4 mps 735 mmHg 95%
    10:00 0°C° 0.1 mm 5 mps 735 mmHg 92%
    11:00 0°C° 0.1 mm 5 mps 735 mmHg 90%
    12:00 +1°C° 0.2 mm 5 mps 734 mmHg 90%
    13:00 +1°C° 0.2 mm 5 mps 734 mmHg 91%
    14:00 +1°C° 0.2 mm 5 mps 734 mmHg 91%
    15:00 +1°C° 0 mm 5 mps 734 mmHg 91%
    16:00 0°C° 0 mm 5 mps 733 mmHg 92%
    17:00 0°C° 0 mm 4 mps 733 mmHg 92%
    18:00 0°C° 0.2 mm 4 mps 733 mmHg 94%
    19:00 0°C° 0.2 mm 3 mps 733 mmHg 96%
    20:00 +1°C° 0.2 mm 2 mps 733 mmHg 98%
    21:00 0°C° 0.8 mm 3 mps 733 mmHg 97%
    22:00 0°C° 0.8 mm 3 mps 733 mmHg 97%
    23:00 -1°C° 0.8 mm 4 mps 733 mmHg 96%

    Tomorrow, 25 January, Saturday

    Time Temperature Precipitation Wind Pressure Humidity
    00:00 -1°C° 0 mm 4 mps 733 mmHg 96%
    01:00 -1°C° 0 mm 4 mps 733 mmHg 95%
    02:00 0°C° 0 mm 3 mps 733 mmHg 94%
    03:00 -1°C° 0 mm 4 mps 733 mmHg 93%
    04:00 -1°C° 0 mm 4 mps 733 mmHg 92%
    05:00 -1°C° 0 mm 5 mps 732 mmHg 90%
    06:00 -1°C° 0 mm 5 mps 732 mmHg 88%
    07:00 -1°C° 0 mm 5 mps 731 mmHg 86%
    08:00 -1°C° 0 mm 6 mps 731 mmHg 83%
    09:00 -2°C° 0.2 mm 6 mps 731 mmHg 80%
    10:00 -2°C° 0.2 mm 7 mps 731 mmHg 77%
    11:00 -2°C° 0.2 mm 7 mps 731 mmHg 73%
    12:00 -2°C° 0.2 mm 7 mps 731 mmHg 70%
    13:00 -2°C° 0.2 mm 7 mps 732 mmHg 67%
    14:00 -3°C° 0.2 mm 7 mps 732 mmHg 64%
    15:00 -3°C° 0 mm 6 mps 733 mmHg 67%
    16:00 -4°C° 0 mm 6 mps 733 mmHg 70%
    17:00 -4°C° 0 mm 6 mps 734 mmHg 72%
    18:00 -4°C° 0 mm 6 mps 734 mmHg 73%
    19:00 -4°C° 0 mm 6 mps 735 mmHg 74%
    20:00 -4°C° 0 mm 6 mps 735 mmHg 75%
    21:00 -4°C° 0 mm 6 mps 736 mmHg 75%
    22:00 -4°C° 0 mm 6 mps 737 mmHg 76%
    23:00 -5°C° 0 mm 6 mps 738 mmHg 76%

    Day after tomorrow, 26 January, Sunday

    Time Temperature Precipitation Wind Pressure Humidity
    00:00 -5°C° 0 mm 5 mps 739 mmHg 77%
    01:00 -5°C° 0 mm 5 mps 739 mmHg 79%
    02:00 -4°C° 0 mm 4 mps 740 mmHg 80%
    03:00 -4°C° 0 mm 4 mps 740 mmHg 81%
    04:00 -5°C° 0 mm 4 mps 741 mmHg 82%
    05:00 -5°C° 0 mm 3 mps 741 mmHg 83%
    06:00 -5°C° 0 mm 3 mps 741 mmHg 82%
    07:00 -5°C° 0 mm 3 mps 741 mmHg 81%
    08:00 -5°C° 0 mm 3 mps 742 mmHg 80%
    09:00 -4°C° 0 mm 3 mps 742 mmHg 81%
    10:00 -2°C° 0 mm 3 mps 741 mmHg 82%
    11:00 -2°C° 0 mm 3 mps 741 mmHg 83%
    12:00 -2°C° 0.2 mm 4 mps 741 mmHg 86%
    13:00 -2°C° 0.2 mm 4 mps 740 mmHg 90%
    14:00 -2°C° 0.2 mm 5 mps 740 mmHg 93%
    15:00 -1°C° 0.4 mm 5 mps 739 mmHg 94%
    16:00 0°C° 0.4 mm 5 mps 739 mmHg 94%
    17:00 +1°C° 0.4 mm 5 mps 739 mmHg 94%
    18:00 +1°C° 0 mm 5 mps 739 mmHg 93%
    19:00 +1°C° 0 mm 5 mps 739 mmHg 92%
    20:00 +1°C° 0 mm 5 mps 739 mmHg 91%
    21:00 +1°C° 0 mm 5 mps 739 mmHg 91%
    22:00 +1°C° 0 mm 5 mps 740 mmHg 92%
    23:00 +1°C° 0 mm 5 mps 740 mmHg 92%

    27 January, Monday

    Time Temperature Precipitation Wind Pressure Humidity
    00:00 +1°C° 0 mm 5 mps 740 mmHg 92%
    01:00 +1°C° 0 mm 4 mps 740 mmHg 93%
    02:00 +1°C° 0 mm 4 mps 741 mmHg 93%
    03:00 +1°C° 0.1 mm 4 mps 741 mmHg 94%
    04:00 +1°C° 0.1 mm 4 mps 741 mmHg 94%
    05:00 +1°C° 0.1 mm 4 mps 741 mmHg 95%
    06:00 +1°C° 0.4 mm 4 mps 741 mmHg 96%
    07:00 +1°C° 0.4 mm 3 mps 741 mmHg 96%
    08:00 +1°C° 0.4 mm 3 mps 741 mmHg 97%
    09:00 +1°C° 0.3 mm 3 mps 742 mmHg 97%
    10:00 +1°C° 0.3 mm 3 mps 742 mmHg 97%
    11:00 +2°C° 0.3 mm 2 mps 742 mmHg 97%
    12:00 +2°C° 0.1 mm 2 mps 742 mmHg 97%
    13:00 +2°C° 0.1 mm 2 mps 742 mmHg 97%
    14:00 +2°C° 0.1 mm 2 mps 742 mmHg 97%
    15:00 +2°C° 0.1 mm 2 mps 742 mmHg 97%
    16:00 +2°C° 0.1 mm 2 mps 742 mmHg 97%
    17:00 +2°C° 0.1 mm 2 mps 742 mmHg 97%
    18:00 +2°C° 0.1 mm 2 mps 742 mmHg 97%
    19:00 +2°C° 0.1 mm 2 mps 742 mmHg 97%
    20:00 +2°C° 0.1 mm 2 mps 742 mmHg 97%
    21:00 +2°C° 0.2 mm 2 mps 742 mmHg 97%
    22:00 +2°C° 0.2 mm 2 mps 742 mmHg 97%
    23:00 +2°C° 0.2 mm 2 mps 743 mmHg 98%

    28 January, Tuesday

    Time Temperature Precipitation Wind Pressure Humidity
    00:00 +2°C° 0.2 mm 2 mps 742 mmHg 98%
    01:00 +2°C° 0.2 mm 2 mps 742 mmHg 98%
    02:00 +2°C° 0.2 mm 2 mps 742 mmHg 98%
    03:00 +2°C° 0.1 mm 2 mps 742 mmHg 98%
    04:00 +2°C° 0.1 mm 2 mps 742 mmHg 98%
    05:00 +2°C° 0.1 mm 2 mps 742 mmHg 98%
    06:00 +1°C° 0.1 mm 2 mps 742 mmHg 98%
    07:00 +1°C° 0.1 mm 2 mps 742 mmHg 98%
    08:00 +2°C° 0.1 mm 1 mps 742 mmHg 98%
    09:00 +2°C° 0 mm 1 mps 742 mmHg 97%
    10:00 +3°C° 0 mm 1 mps 742 mmHg 96%
    11:00 +3°C° 0 mm 1 mps 743 mmHg 95%
    12:00 +2°C° 0 mm 2 mps 742 mmHg 96%
    13:00 +2°C° 0 mm 2 mps 742 mmHg 96%
    14:00 +1°C° 0 mm 2 mps 742 mmHg 96%
    15:00 +1°C° 0 mm 2 mps 742 mmHg 96%
    16:00 +1°C° 0 mm 2 mps 742 mmHg 95%
    17:00 +1°C° 0 mm 2 mps 742 mmHg 94%
    18:00 +1°C° 0 mm 2 mps 742 mmHg 94%
    19:00 +1°C° 0 mm 2 mps 742 mmHg 94%
    20:00 0°C° 0 mm 3 mps 742 mmHg 94%
    21:00 0°C° 0 mm 3 mps 742 mmHg 94%
    22:00 0°C° 0 mm 3 mps 742 mmHg 95%
    23:00 0°C° 0 mm 3 mps 742 mmHg 95%

    29 January, Wednesday

    Time Temperature Precipitation Wind Pressure Humidity
    00:00 0°C° 0 mm 3 mps 742 mmHg 95%
    01:00 0°C° 0 mm 3 mps 741 mmHg 94%
    02:00 0°C° 0 mm 3 mps 741 mmHg 94%
    03:00 0°C° 0 mm 3 mps 741 mmHg 94%
    04:00 0°C° 0 mm 3 mps 741 mmHg 95%
    05:00 0°C° 0 mm 3 mps 740 mmHg 95%
    06:00 0°C° 0 mm 3 mps 740 mmHg 95%
    07:00 -1°C° 0 mm 4 mps 740 mmHg 94%
    08:00 0°C° 0 mm 4 mps 740 mmHg 93%
    09:00 0°C° 0.1 mm 4 mps 739 mmHg 94%
    10:00 0°C° 0.1 mm 4 mps 739 mmHg 94%
    11:00 0°C° 0.1 mm 4 mps 739 mmHg 95%
    12:00 0°C° 0 mm 4 mps 739 mmHg 94%
    13:00 0°C° 0 mm 4 mps 738 mmHg 93%
    14:00 0°C° 0 mm 5 mps 738 mmHg 92%
    15:00 0°C° 0 mm 5 mps 738 mmHg 92%
    16:00 0°C° 0 mm 5 mps 738 mmHg 91%
    17:00 -1°C° 0 mm 5 mps 738 mmHg 91%
    18:00 -1°C° 0 mm 5 mps 737 mmHg 92%
    19:00 -1°C° 0 mm 5 mps 737 mmHg 93%
    20:00 -1°C° 0 mm 5 mps 737 mmHg 93%
    21:00 -1°C° 0 mm 5 mps 737 mmHg 93%
    22:00 -1°C° 0 mm 5 mps 736 mmHg 93%
    23:00 -1°C° 0 mm 5 mps 736 mmHg 93%
    Show more